GW3710 Weather Reports


time (UTC)temp
C
wind
direction
speed
KPH
gust
KPH
rain 1hr
cm
rain 24hr
cm
rain mn
cm
humidity
%
barometer
mb
20260906132059 17 138 0.0 3.2 0.00 0.00 0.00 99 1020.8
20260906131554 17 124 0.0 3.2 0.00 0.00 0.00 99 1020.8
20260906131050 17 140 0.0 1.6 0.00 0.00 0.00 99 1020.8
20260906130544 16 129 0.0 3.2 0.00 0.00 0.00 99 1020.6
20260906130039 16 86 1.6 3.2 0.00 0.00 0.00 99 1020.6
20260906125537 16 129 0.0 0.0 0.00 0.00 0.00 99 1020.7
20260906125037 16 131 0.0 0.0 0.00 0.00 0.00 99 1020.5
20260906124532 16 53 0.0 0.0 0.00 0.00 0.00 99 1020.5
20260906124027 16 114 1.6 3.2 0.00 0.00 0.00 99 1020.5
20260906123526 16 126 0.0 0.0 0.00 0.00 0.00 99 1020.3
20260906123021 16 127 0.0 0.0 0.00 0.00 0.00 99 1020.0
20260906122515 16 129 0.0 0.0 0.00 0.00 0.00 99 1020.1
20260906122012 16 134 0.0 0.0 0.00 0.00 0.00 99 1020.1
20260906121507 16 129 0.0 0.0 0.00 0.00 0.00 99 1020.0
20260906121004 15 126 0.0 1.6 0.00 0.00 0.00 99 1020.3
20260906120503 15 127 0.0 0.0 0.00 0.00 0.00 99 1020.1
20260906120000 15 114 0.0 0.0 0.00 0.00 0.00 99 1020.0
20260906115455 14 92 0.0 1.6 0.00 0.00 0.00 99 1019.6
20260906114950 14 115 0.0 1.6 0.00 0.00 0.00 99 1019.8
20260906114445 14 144 0.0 0.0 0.00 0.00 0.00 99 1019.8
20260906113941 14 126 0.0 1.6 0.00 0.00 0.00 99 1019.7
20260906113439 14 138 0.0 0.0 0.00 0.00 0.00 99 1019.6
20260906112935 14 139 0.0 0.0 0.00 0.00 0.00 99 1019.6
20260906112430 14 142 0.0 0.0 0.00 0.00 0.00 99 1019.6
20260906111926 13 142 0.0 0.0 0.00 0.00 0.00 99 1019.4
20260906111425 13 141 0.0 0.0 0.00 0.00 0.00 99 1019.6
20260906110920 13 141 0.0 0.0 0.00 0.00 0.00 99 1019.5
20260906110416 14 148 0.0 0.0 0.00 0.00 0.00 99 1019.6
20260906105915 14 135 0.0 0.0 0.00 0.00 0.00 99 1019.3
20260906105411 14 132 0.0 0.0 0.00 0.00 0.00 99 1019.3
20260906104907 13 132 0.0 0.0 0.00 0.00 0.00 99 1019.2
20260906104405 13 140 0.0 0.0 0.00 0.00 0.00 99 1019.4
20260906103904 13 140 0.0 0.0 0.00 0.00 0.00 99 1019.4
20260906103402 13 140 0.0 0.0 0.00 0.00 0.00 99 1019.4
20260906102858 13 140 0.0 0.0 0.00 0.00 0.00 99 1019.6
20260906102357 13 140 0.0 0.0 0.00 0.00 0.00 99 1019.5
20260906101852 13 140 0.0 0.0 0.00 0.00 0.00 99 1019.4
20260906101347 13 140 0.0 0.0 0.00 0.00 0.00 99 1019.5
20260906100843 14 140 0.0 0.0 0.00 0.00 0.00 99 1019.6
20260906100342 14 140 0.0 0.0 0.00 0.00 0.00 99 1019.4
20260906095837 15 140 0.0 0.0 0.00 0.00 0.00 99 1019.3
20260906095333 15 141 0.0 0.0 0.00 0.00 0.00 99 1019.2
20260906094831 14 140 0.0 0.0 0.00 0.00 0.00 99 1019.3
20260906094326 13 127 0.0 0.0 0.00 0.00 0.00 99 1019.4
20260906093823 13 143 0.0 0.0 0.00 0.00 0.00 99 1019.4
20260906093318 13 143 0.0 0.0 0.00 0.00 0.00 99 1019.3
20260906092813 13 143 0.0 0.0 0.00 0.00 0.00 99 1019.4
20260906092308 13 143 0.0 0.0 0.00 0.00 0.00 99 1019.3
20260906091804 13 143 0.0 0.0 0.00 0.00 0.00 99 1019.6
20260906091300 13 143 0.0 0.0 0.00 0.00 0.00 99 1019.4
20260906090756 14 143 0.0 0.0 0.00 0.00 0.00 99 1019.3
20260906090254 15 143 0.0 0.0 0.00 0.00 0.00 99 1019.5
20260906085754 15 143 0.0 0.0 0.00 0.00 0.00 99 1019.4
20260906085247 15 143 0.0 0.0 0.00 0.00 0.00 99 1019.4
20260906084742 15 143 0.0 0.0 0.00 0.00 0.00 99 1019.4
20260906084236 15 143 0.0 0.0 0.00 0.00 0.00 99 1019.3
20260906083732 15 139 0.0 0.0 0.00 0.00 0.00 99 1019.4
20260906083227 15 139 0.0 0.0 0.00 0.00 0.00 99 1019.3
20260906082722 15 130 0.0 0.0 0.00 0.00 0.00 99 1019.2
20260906082217 15 138 0.0 0.0 0.00 0.00 0.00 99 1019.3
20260906081713 15 135 0.0 0.0 0.00 0.00 0.00 99 1019.3
20260906081208 15 145 0.0 0.0 0.00 0.00 0.00 99 1019.3
20260906080704 15 145 0.0 0.0 0.00 0.00 0.00 99 1019.2
20260906080154 15 149 0.0 0.0 0.00 0.00 0.00 99 1019.3
20260906075653 15 149 0.0 0.0 0.00 0.00 0.00 99 1019.2
20260906075143 15 149 0.0 0.0 0.00 0.00 0.00 99 1019.0
20260906074638 15 149 0.0 0.0 0.00 0.00 0.00 99 1019.4
20260906074137 15 153 0.0 0.0 0.00 0.00 0.00 99 1019.4
20260906073632 15 142 0.0 0.0 0.00 0.00 0.00 99 1019.2
20260906073128 15 143 0.0 0.0 0.00 0.00 0.00 99 1019.1
20260906072622 15 138 0.0 0.0 0.00 0.00 0.00 99 1019.2
20260906072119 15 138 0.0 0.0 0.00 0.00 0.00 99 1019.3
20260906071615 15 138 0.0 0.0 0.00 0.00 0.00 99 1019.4
20260906071114 15 138 0.0 0.0 0.00 0.00 0.00 99 1019.5
20260906070611 14 138 0.0 0.0 0.00 0.00 0.00 99 1019.6
20260906070106 15 138 0.0 0.0 0.00 0.00 0.00 99 1019.8
20260906065606 14 138 0.0 0.0 0.00 0.00 0.00 99 1019.8
20260906065101 15 138 0.0 0.0 0.00 0.00 0.00 99 1019.7
20260906064557 14 138 0.0 0.0 0.00 0.00 0.00 99 1019.6
20260906064047 14 138 0.0 0.0 0.00 0.00 0.00 99 1019.8
20260906063542 14 138 0.0 0.0 0.00 0.00 0.00 99 1019.7
20260906063038 14 138 0.0 0.0 0.00 0.00 0.00 99 1019.7
20260906062533 14 138 0.0 0.0 0.00 0.00 0.00 99 1019.5
20260906062027 14 138 0.0 0.0 0.00 0.00 0.00 99 1019.7
20260906061524 14 138 0.0 0.0 0.00 0.00 0.00 99 1019.4
20260906061022 14 138 0.0 0.0 0.00 0.00 0.00 99 1019.4
20260906060519 15 137 0.0 0.0 0.00 0.00 0.00 99 1019.4
20260906060016 15 135 0.0 0.0 0.00 0.00 0.00 99 1019.4
20260906055511 15 145 0.0 0.0 0.00 0.00 0.00 99 1019.4
20260906055006 15 145 0.0 0.0 0.00 0.00 0.00 99 1019.2
20260906054501 15 145 0.0 0.0 0.00 0.00 0.00 99 1019.5
20260906053956 15 145 0.0 0.0 0.00 0.00 0.00 99 1019.2
20260906053452 15 144 0.0 0.0 0.00 0.00 0.00 99 1019.4
20260906052942 15 139 0.0 0.0 0.00 0.00 0.00 99 1019.3
20260906052438 15 139 0.0 0.0 0.00 0.00 0.00 99 1019.2
20260906051935 15 139 0.0 0.0 0.00 0.00 0.00 99 1019.3
20260906051430 15 139 0.0 0.0 0.00 0.00 0.00 99 1019.3
20260906050926 15 139 0.0 0.0 0.00 0.00 0.00 99 1019.3
20260906050425 15 139 0.0 0.0 0.00 0.00 0.00 99 1019.5
20260906045925 15 135 0.0 0.0 0.00 0.00 0.00 99 1019.2
20260906045423 16 131 0.0 0.0 0.00 0.00 0.00 99 1019.3
20260906044919 16 154 0.0 0.0 0.00 0.00 0.00 99 1019.4
20260906044414 16 155 0.0 0.0 0.00 0.00 0.00 99 1019.4
20260906043910 16 155 0.0 0.0 0.00 0.00 0.00 99 1019.2
20260906043406 16 155 0.0 0.0 0.00 0.00 0.00 99 1019.2
20260906042901 16 155 0.0 0.0 0.00 0.00 0.00 99 1019.3
20260906042400 16 155 0.0 0.0 0.00 0.00 0.00 99 1019.2
20260906041855 16 157 0.0 0.0 0.00 0.00 0.00 99 1019.2
20260906041351 17 152 0.0 0.0 0.00 0.00 0.00 99 1018.6
20260906040850 17 131 0.0 0.0 0.00 0.00 0.00 99 1018.8
20260906040346 17 173 0.0 0.0 0.00 0.00 0.00 99 1018.9
20260906035841 17 134 0.0 0.0 0.00 0.00 0.00 99 1018.8
20260906035336 17 139 0.0 1.6 0.00 0.00 0.00 99 1018.7
20260906034832 17 137 0.0 1.6 0.00 0.00 0.00 99 1018.6
20260906034327 17 134 0.0 0.0 0.00 0.00 0.00 99 1018.8
20260906033823 17 131 0.0 3.2 0.00 0.00 0.00 99 1018.6
20260906033322 17 119 0.0 1.6 0.00 0.00 0.00 99 1018.6
20260906032818 17 130 0.0 0.0 0.00 0.00 0.00 99 1018.8
20260906032314 17 130 0.0 0.0 0.00 0.00 0.00 99 1018.8
20260906031809 17 130 0.0 0.0 0.00 0.00 0.00 99 1018.8
20260906031305 17 130 0.0 0.0 0.00 0.00 0.00 99 1018.8
20260906030804 17 129 0.0 0.0 0.00 0.00 0.00 99 1018.7
20260906030300 17 128 0.0 0.0 0.00 0.00 0.00 99 1018.7
20260906025759 17 128 0.0 0.0 0.00 0.00 0.00 99 1018.6
20260906025254 17 128 0.0 0.0 0.00 0.00 0.00 99 1018.5
20260906024752 17 128 0.0 0.0 0.00 0.00 0.00 99 1018.5
20260906024251 17 128 0.0 0.0 0.00 0.00 0.00 99 1018.4
20260906023747 17 128 0.0 0.0 0.00 0.00 0.00 99 1018.5
20260906023242 17 128 0.0 0.0 0.00 0.00 0.00 99 1018.7
20260906022738 17 128 0.0 0.0 0.00 0.00 0.00 99 1018.6
20260906022232 17 128 0.0 0.0 0.00 0.00 0.00 99 1018.3
20260906021729 17 128 0.0 0.0 0.00 0.00 0.00 99 1018.1
20260906021227 17 128 0.0 0.0 0.00 0.00 0.00 99 1018.3
20260906020722 17 128 0.0 0.0 0.00 0.00 0.00 99 1018.3
20260906020218 17 128 0.0 0.0 0.00 0.00 0.00 99 1018.3
20260906015718 17 128 0.0 0.0 0.00 0.00 0.00 99 1018.1
20260906015216 17 128 0.0 0.0 0.00 0.00 0.00 99 1018.3
20260906014710 17 128 0.0 0.0 0.00 0.00 0.00 99 1018.4
20260906014206 17 128 0.0 0.0 0.00 0.00 0.00 99 1018.3
20260906013657 17 128 0.0 0.0 0.00 0.00 0.00 99 1018.0
20260906013151 17 128 0.0 0.0 0.00 0.00 0.00 99 1018.1
20260906012651 17 128 0.0 0.0 0.00 0.00 0.00 99 1018.1
20260906012146 17 128 0.0 0.0 0.00 0.00 0.00 99 1018.1
20260906011642 18 128 0.0 0.0 0.00 0.00 0.00 99 1017.8
20260906011142 18 128 0.0 0.0 0.00 0.00 0.00 99 1017.8
20260906010637 18 128 0.0 0.0 0.00 0.00 0.00 99 1017.8
20260906010134 18 128 0.0 0.0 0.00 0.00 0.00 99 1017.8
20260906005633 18 128 0.0 0.0 0.00 0.00 0.00 99 1018.0
20260906005133 18 128 0.0 0.0 0.00 0.00 0.00 99 1017.9
20260906004632 18 128 0.0 0.0 0.00 0.00 0.00 99 1017.9
20260906004127 18 121 0.0 1.6 0.00 0.00 0.00 98 1017.8
20260906003622 19 120 1.6 1.6 0.00 0.00 0.00 98 1017.7
20260906003118 19 121 0.0 0.0 0.00 0.00 0.00 97 1017.9
20260906002613 20 121 0.0 0.0 0.00 0.00 0.00 96 1017.9
20260906002107 20 120 0.0 0.0 0.00 0.00 0.00 96 1018.0
20260906001602 20 120 1.6 1.6 0.00 0.00 0.00 95 1018.0
20260906001057 20 119 0.0 1.6 0.00 0.00 0.00 94 1018.0
20260906000553 21 127 1.6 1.6 0.00 0.00 0.00 92 1018.1
20260906000048 21 127 0.0 0.0 0.00 0.00 0.00 89 1018.3
20260905235547 21 127 0.0 0.0 0.00 0.00 0.00 89 1018.1
20260905235042 21 126 0.0 1.6 0.00 0.00 0.00 88 1018.3
20260905234538 21 123 0.0 1.6 0.00 0.00 0.00 88 1018.0
20260905234033 21 102 3.2 3.2 0.00 0.00 0.00 86 1018.3
20260905233532 21 136 1.6 1.6 0.00 0.00 0.00 87 1018.1
20260905233027 21 130 1.6 3.2 0.00 0.00 0.00 87 1018.5
20260905232522 21 165 3.2 3.2 0.00 0.00 0.00 88 1018.4
20260905232018 21 97 3.2 3.2 0.00 0.00 0.00 87 1018.1
20260905231513 21 101 4.8 4.8 0.00 0.00 0.00 87 1018.3
20260905231010 21 90 1.6 6.4 0.00 0.00 0.00 87 1018.3
20260905230508 21 117 1.6 3.2 0.00 0.00 0.00 87 1018.4
20260905230007 21 139 1.6 3.2 0.00 0.00 0.00 87 1018.3
20260905225502 21 108 1.6 3.2 0.00 0.00 0.00 87 1018.7
20260905224957 21 122 1.6 1.6 0.00 0.00 0.00 87 1018.5
20260905224452 21 145 0.0 1.6 0.00 0.00 0.00 88 1018.5
20260905223951 21 97 4.8 4.8 0.00 0.00 0.00 88 1018.7
20260905223449 21 150 1.6 6.4 0.00 0.00 0.00 88 1018.5
20260905222944 21 137 0.0 4.8 0.00 0.00 0.00 88 1018.3
20260905222444 21 139 1.6 4.8 0.00 0.00 0.00 89 1018.5
20260905221939 21 159 3.2 9.7 0.00 0.00 0.00 89 1018.4
20260905221436 21 97 8.0 9.7 0.00 0.00 0.00 90 1018.4
20260905220931 21 148 0.0 1.6 0.00 0.00 0.00 91 1018.7
20260905220422 21 118 1.6 3.2 0.00 0.00 0.00 90 1018.5
20260905215920 21 144 0.0 1.6 0.00 0.00 0.00 91 1018.6
20260905215416 21 102 3.2 4.8 0.00 0.00 0.00 90 1018.7
20260905214913 21 116 0.0 4.8 0.00 0.00 0.00 91 1018.5
20260905214408 21 104 4.8 6.4 0.00 0.00 0.00 90 1018.5
20260905213902 21 106 4.8 6.4 0.00 0.00 0.00 90 1018.5
20260905213359 21 72 3.2 4.8 0.00 0.00 0.00 90 1018.6
20260905212854 21 340 3.2 3.2 0.00 0.00 0.00 90 1018.4
20260905212354 21 58 6.4 6.4 0.00 0.00 0.00 89 1018.3
20260905211848 21 119 3.2 9.7 0.00 0.00 0.00 90 1018.5
20260905211343 21 34 4.8 6.4 0.00 0.00 0.00 89 1018.4
20260905210839 21 101 0.0 4.8 0.00 0.00 0.00 90 1018.4
20260905210333 21 114 1.6 4.8 0.00 0.00 0.00 90 1018.4
20260905205832 21 49 1.6 4.8 0.00 0.00 0.00 90 1018.1
20260905205327 21 64 4.8 9.7 0.00 0.00 0.00 89 1018.4
20260905204826 22 60 6.4 12.9 0.00 0.00 0.00 88 1018.6
20260905204322 22 357 4.8 14.5 0.00 0.00 0.00 87 1018.5
20260905203821 22 179 4.8 12.9 0.00 0.00 0.00 87 1018.6
20260905203317 22 70 3.2 4.8 0.00 0.00 0.00 87 1018.7
20260905202812 22 130 4.8 11.3 0.00 0.00 0.00 88 1018.6
20260905202307 22 135 0.0 4.8 0.00 0.00 0.00 88 1018.6
20260905201757 22 108 3.2 4.8 0.00 0.00 0.00 89 1018.5
20260905201252 22 15 4.8 9.7 0.00 0.00 0.00 88 1018.5
20260905200747 23 113 3.2 9.7 0.00 0.00 0.00 87 1018.3
20260905200243 22 129 8.0 14.5 0.00 0.00 0.00 87 1018.3
20260905195741 22 68 4.8 6.4 0.00 0.00 0.00 87 1018.3
20260905195236 22 26 1.6 4.8 0.00 0.00 0.00 88 1018.5
20260905194732 23 79 3.2 4.8 0.00 0.00 0.00 88 1018.4
20260905194231 22 61 1.6 4.8 0.00 0.00 0.00 88 1018.3
20260905193725 22 4 1.6 6.4 0.00 0.00 0.00 89 1018.3
20260905193220 22 160 1.6 12.9 0.00 0.00 0.00 90 1018.3
20260905192716 22 84 6.4 11.3 0.00 0.00 0.00 88 1018.3
20260905192213 22 87 9.7 14.5 0.00 0.00 0.00 88 1018.4
20260905191712 22 141 3.2 11.3 0.00 0.00 0.00 90 1018.4
20260905191210 22 134 3.2 9.7 0.00 0.00 0.00 90 1018.5
20260905190709 22 84 4.8 16.1 0.00 0.00 0.00 89 1018.5
20260905190208 22 141 0.0 3.2 0.00 0.00 0.00 90 1018.4
20260905185706 22 304 3.2 4.8 0.00 0.00 0.00 89 1018.6
20260905185207 22 35 1.6 4.8 0.00 0.00 0.00 90 1018.4
20260905184701 22 56 1.6 4.8 0.00 0.00 0.00 90 1017.9
20260905184200 22 99 3.2 4.8 0.00 0.00 0.00 90 1018.3
20260905183700 22 98 1.6 6.4 0.00 0.00 0.00 90 1018.3
20260905183155 22 84 4.8 6.4 0.00 0.00 0.00 89 1018.1
20260905182654 22 109 1.6 4.8 0.00 0.00 0.00 90 1018.3
20260905182148 22 28 3.2 6.4 0.00 0.00 0.00 89 1018.0
20260905181643 22 143 1.6 4.8 0.00 0.00 0.00 88 1018.1
20260905181142 22 144 0.0 3.2 0.00 0.00 0.00 89 1018.3
20260905180637 22 123 0.0 3.2 0.00 0.00 0.00 89 1018.3
20260905180132 22 119 1.6 4.8 0.00 0.00 0.00 89 1018.3
20260905175631 22 79 1.6 4.8 0.00 0.00 0.00 89 1018.4
20260905175127 22 47 1.6 4.8 0.00 0.00 0.00 89 1018.5
20260905174623 22 191 1.6 3.2 0.00 0.00 0.00 90 1018.5
20260905174118 22 62 1.6 4.8 0.00 0.00 0.00 90 1018.6
20260905173614 22 17 3.2 3.2 0.00 0.00 0.00 89 1018.6
20260905173109 22 103 1.6 1.6 0.00 0.00 0.00 88 1018.7
20260905172608 23 94 1.6 3.2 0.00 0.00 0.00 89 1018.7
20260905172058 22 173 0.0 1.6 0.00 0.00 0.00 89 1018.4
20260905171554 22 274 3.2 6.4 0.00 0.00 0.00 89 1018.6
20260905171050 22 114 3.2 4.8 0.00 0.00 0.00 90 1018.5
20260905170547 22 27 1.6 3.2 0.00 0.00 0.00 89 1018.6
20260905170041 22 121 1.6 3.2 0.00 0.00 0.00 89 1018.4
20260905165536 22 135 0.0 3.2 0.00 0.00 0.00 91 1018.5
20260905165032 22 54 4.8 4.8 0.00 0.00 0.00 89 1018.6
20260905164526 22 58 1.6 4.8 0.00 0.00 0.00 91 1018.6
20260905164020 22 5 3.2 6.4 0.00 0.00 0.00 91 1018.5
20260905163511 22 98 3.2 4.8 0.00 0.00 0.00 91 1018.6
20260905163007 22 36 1.6 3.2 0.00 0.00 0.00 93 1018.4
20260905162502 22 46 3.2 6.4 0.00 0.00 0.00 93 1018.3
20260905161956 22 120 0.0 4.8 0.00 0.00 0.00 93 1018.4
20260905161455 21 9 1.6 4.8 0.00 0.00 0.00 94 1018.4
20260905160954 21 126 1.6 4.8 0.00 0.00 0.00 94 1018.5
20260905160448 21 122 0.0 3.2 0.00 0.00 0.00 95 1018.6
20260905155947 21 90 6.4 12.9 0.00 0.00 0.00 95 1018.6
20260905155442 21 78 3.2 4.8 0.00 0.00 0.00 95 1018.4
20260905154941 21 112 1.6 4.8 0.00 0.00 0.00 96 1018.4
20260905154436 21 238 1.6 4.8 0.00 0.00 0.00 96 1018.3
20260905153932 21 43 3.2 4.8 0.00 0.00 0.00 96 1018.4
20260905153428 21 47 3.2 6.4 0.00 0.00 0.00 96 1018.5
20260905152927 21 136 3.2 4.8 0.00 0.00 0.00 96 1018.4
20260905152427 20 90 4.8 6.4 0.00 0.00 0.00 96 1018.0
20260905151922 20 27 1.6 6.4 0.00 0.00 0.00 97 1018.0
20260905151418 21 41 1.6 3.2 0.00 0.00 0.00 98 1018.0
20260905150919 20 108 1.6 6.4 0.00 0.00 0.00 98 1018.1
20260905150419 20 36 3.2 4.8 0.00 0.00 0.00 98 1017.9
20260905145915 20 100 4.8 4.8 0.00 0.00 0.00 98 1018.1
20260905145410 20 128 1.6 9.7 0.00 0.00 0.00 99 1017.8
20260905144909 20 125 1.6 9.7 0.00 0.00 0.00 99 1017.8
20260905144405 20 71 0.0 3.2 0.00 0.00 0.00 99 1017.7
20260905143903 20 115 0.0 4.8 0.00 0.00 0.00 99 1017.9
20260905143357 19 179 1.6 12.9 0.00 0.00 0.00 99 1017.9
20260905142857 19 128 1.6 6.4 0.00 0.00 0.00 99 1017.7
20260905142350 19 73 4.8 9.7 0.00 0.00 0.00 99 1017.7
20260905141847 19 161 0.0 9.7 0.00 0.00 0.00 99 1017.7
20260905141342 19 62 1.6 4.8 0.00 0.00 0.00 99 1017.7
20260905140837 19 62 4.8 9.7 0.00 0.00 0.00 99 1017.6
20260905140337 19 338 6.4 9.7 0.00 0.00 0.00 99 1017.4
20260905135835 19 62 3.2 4.8 0.00 0.00 0.00 99 1017.3
20260905135332 19 356 0.0 1.6 0.00 0.00 0.00 99 1017.3
20260905134827 19 125 0.0 4.8 0.00 0.00 0.00 99 1017.4
20260905134320 19 103 3.2 4.8 0.00 0.00 0.00 99 1017.4
20260905133814 19 157 1.6 1.6 0.00 0.00 0.00 99 1017.1
20260905133310 18 149 0.0 1.6 0.00 0.00 0.00 99 1017.3
20260905132809 18 56 3.2 6.4 0.00 0.00 0.00 99 1017.3